Location: Borea
(45.6167°N, 23.0167°E)
Time: 11:05:41
(UTC+00:00)

Cosmos 1340 - Pass Details

Date: 03 February 2023
Orbit: 478 x 483 km, 81.2° (Epoch: 31 March)

Event Time Altitude Azimuth Distance (km) Brightness Sun altitude
Rises 16:55:29 0° 356° (N) 2,553 6.2 -14.0°
Reaches altitude 10° 16:57:43 10° 5° (N) 1,671 5.1 -14.4°
Maximum altitude 17:01:07 37° 74° (ENE) 776 3.0 -15.0°
Enters shadow 17:03:52 14° 138° (SE) 1,419 4.6 -15.5°
